Location: Proctor
(47.8934°N, 114.3048°W)
Time: 22:36:20
(UTC+00:00)

CAS-6 - Pass Details

Date: 28 June 2022
Orbit: 613 x 634 km, 97.9° (Epoch: 18 August)

Event Time Altitude Azimuth Distance (km) Brightness Sun altitude
Exits shadow 04:30:36 - 113° (ESE) 2,298 ? -7.1°
Reaches altitude 10° 04:31:34 10° 105° (ESE) 2,007 ? -7.2°
Maximum altitude 04:34:32 18° 61° (ENE) 1,534 ? -7.5°
Drops below altitude 10° 04:37:31 10° 18° (NNE) 2,009 ? -7.9°
Sets 04:40:15 0° 0° (N) 2,916 ? -8.2°
